Vorticity
nan nan nan nan nan nan nan nan nan nan nan nan nan nan nan nan nan nan nan nan nan nan nan nan nan nan nan nan nan nan nan nan nan nan nan nan nan nan nan nan nan nan nan nan nan nan nan nan nan nan nan nan nan nan
nan 12 14 12 11 11 12 14 16 11 8 12 18 16 14 9 7 6 6 13 10 7 5 12 15 9 7 6 9 7 9 6 7 9 9 10 11 6 8 13 10 8 6 6 7 8 6 7 7 8 10 6 7 nan
nan 13 15 15 15 13 11 12 14 14 11 10 12 12 9 9 12 6 7 11 9 10 14 13 14 17 19 15 7 4 10 11 8 8 8 11 10 9 11 8 5 8 6 6 8 5 3 7 16 13 2 5 10 nan
nan 7 8 12 15 15 14 13 12 11 11 10 7 11 14 15 13 7 7 8 7 8 13 11 14 14 15 23 17 4 0 7 11 13 9 9 12 9 6 6 9 7 5 11 9 11 12 9 4 2 13 16 15 nan
nan 8 7 7 8 11 14 15 14 14 14 11 8 9 13 12 9 12 12 11 7 5 9 8 13 19 17 17 16 12 8 4 10 11 10 9 6 11 12 12 12 12 11 8 2 6 11 8 8 13 16 16 17 nan
nan 7 7 7 7 7 8 9 11 12 13 13 15 11 8 9 7 7 15 17 12 10 8 10 16 22 20 18 18 15 10 10 9 10 9 10 10 11 13 11 13 14 16 6 2 1 9 14 14 13 10 10 10 nan
nan 8 7 7 7 8 9 9 8 8 8 10 15 16 15 12 9 3 7 22 18 7 10 11 11 13 12 12 13 17 13 9 10 10 12 9 16 11 6 9 9 8 10 12 9 13 17 15 8 8 10 10 11 nan
nan 10 12 10 6 8 10 9 9 10 9 9 9 14 20 16 8 9 17 16 4 2 9 11 12 15 12 5 11 12 13 11 10 8 12 14 13 9 8 10 7 11 10 12 19 14 11 13 13 10 9 11 12 nan
nan 10 12 11 13 13 6 9 9 10 14 11 10 15 14 14 15 23 22 1 -2 10 12 10 9 13 13 9 11 11 11 10 11 11 11 13 11 5 3 5 8 11 13 15 13 9 11 8 9 10 10 11 12 nan
nan 9 11 13 16 13 7 7 10 8 13 17 13 9 12 14 15 14 8 6 13 10 9 11 9 8 12 10 7 9 10 10 12 14 9 11 13 12 13 12 13 12 18 17 11 13 11 8 8 10 10 11 12 nan
nan 10 9 13 15 17 13 7 10 12 12 14 11 9 12 14 7 6 10 12 11 10 12 14 14 9 11 11 9 10 9 12 12 16 9 9 12 17 20 24 23 25 20 10 12 13 11 10 9 9 9 9 10 nan
nan 10 10 13 21 19 11 7 10 11 10 10 11 12 11 12 11 10 11 12 10 12 12 13 16 14 10 13 12 10 9 10 15 10 9 9 12 12 14 16 19 21 13 10 8 8 8 8 9 9 9 9 9 nan
nan 10 11 14 18 19 12 8 11 12 10 9 11 11 12 13 8 11 9 8 12 13 13 12 11 12 11 11 11 11 12 8 12 8 9 11 13 13 14 14 11 9 8 7 8 8 9 9 9 8 9 11 11 nan
nan 9 10 13 16 17 15 9 12 11 8 12 12 11 10 8 13 14 10 9 10 12 12 9 10 11 11 9 9 13 11 10 9 11 11 12 12 16 13 11 11 9 8 7 8 11 10 11 10 11 11 13 13 nan
nan 9 13 14 13 11 16 16 14 8 11 12 10 13 12 6 8 10 14 13 9 11 13 11 10 12 11 12 11 10 11 9 11 12 13 12 15 15 11 10 8 9 12 11 10 10 11 11 12 12 12 11 11 nan
nan 13 15 12 10 10 16 20 16 10 10 12 11 10 10 11 11 12 12 12 11 10 12 12 11 12 12 12 12 9 7 11 11 11 11 12 13 12 11 10 11 12 10 8 9 9 10 10 10 10 11 13 11 nan
nan 11 5 8 10 14 15 14 12 12 10 10 11 11 8 8 9 11 11 11 13 15 13 13 17 8 9 17 9 11 11 10 13 9 6 9 13 14 13 11 13 10 9 9 10 10 10 11 9 11 12 11 10 nan
nan 10 6 6 13 15 12 10 11 16 12 9 9 11 11 10 11 10 9 8 10 14 12 9 12 11 7 13 12 5 12 12 6 10 10 9 13 15 14 13 11 10 10 9 9 12 12 10 11 11 12 12 12 nan
nan 9 10 9 13 14 13 13 11 13 13 11 13 11 9 10 11 11 11 12 13 10 8 12 10 10 9 9 9 6 8 9 10 12 11 12 14 15 12 12 12 12 10 9 9 10 12 13 13 12 12 13 12 nan
nan 8 13 18 15 11 13 11 10 12 13 13 13 11 10 10 12 13 12 11 12 11 9 11 8 6 9 9 10 11 9 9 9 8 10 13 14 15 13 12 11 11 11 11 11 11 11 13 12 11 10 11 12 nan
nan 17 17 17 13 10 9 14 11 11 13 13 12 13 13 13 12 10 10 11 13 13 11 9 11 12 12 10 9 8 9 9 8 9 10 12 15 16 14 15 13 10 10 11 11 13 11 9 11 11 11 11 12 nan
nan 14 16 16 10 12 13 10 7 11 12 13 14 12 13 12 11 12 14 14 11 13 14 11 11 11 14 13 12 10 11 12 14 14 14 14 16 16 15 14 12 11 11 12 11 10 11 12 10 11 11 11 12 nan
nan 14 12 14 12 9 14 15 13 9 10 13 15 13 10 11 12 13 9 9 11 12 12 11 13 15 14 13 13 16 18 16 14 14 15 14 15 16 17 15 13 13 13 12 10 11 10 12 12 10 11 11 11 nan
nan 12 14 14 10 9 14 13 12 13 14 12 9 14 12 13 13 8 7 10 13 12 12 15 18 18 17 15 13 15 18 15 13 13 16 16 15 13 12 13 12 11 12 12 11 11 12 11 12 11 11 11 11 nan
nan 12 13 13 14 14 11 11 13 8 10 12 9 10 15 13 11 11 14 15 13 11 12 14 17 19 15 14 15 16 17 16 15 14 14 11 11 12 12 11 10 11 12 11 10 10 11 12 11 10 10 11 10 nan
nan 11 11 11 14 14 13 12 14 13 12 12 13 11 12 12 12 15 18 12 8 11 8 10 15 17 16 16 18 20 18 17 16 16 15 14 12 11 12 11 11 12 10 10 11 10 11 11 9 10 11 11 12 nan
nan 11 9 10 12 12 8 11 14 15 16 14 12 13 12 11 11 13 13 11 8 10 12 14 15 14 13 17 18 16 18 14 15 19 17 13 11 14 17 17 13 13 14 11 11 11 10 10 11 11 11 12 12 nan
nan 14 12 8 10 11 10 10 12 11 11 10 12 11 8 9 8 12 9 11 15 10 11 13 13 14 17 17 15 12 12 12 12 11 9 9 11 12 13 13 14 11 11 12 13 12 10 9 10 11 11 12 12 nan
nan 12 11 9 10 8 10 14 12 9 13 14 13 10 7 8 9 9 10 15 15 10 12 14 14 12 13 11 12 14 14 12 10 9 6 7 12 13 10 10 9 9 11 14 13 9 11 12 12 12 13 14 14 nan
nan 14 14 9 7 10 9 7 10 14 14 11 12 16 15 13 11 12 15 13 12 13 13 15 14 12 11 11 11 10 9 10 11 14 14 13 13 16 15 12 11 11 11 11 11 15 15 13 15 13 11 12 12 nan
nan 16 15 14 8 12 15 10 9 12 13 15 13 15 10 10 14 13 14 15 16 17 16 13 11 13 13 14 13 13 12 12 12 15 17 17 15 13 12 12 12 12 12 12 12 12 13 14 12 11 10 10 12 nan
nan 14 14 16 15 12 17 18 14 12 10 10 8 9 12 11 6 14 20 16 15 15 13 13 15 15 13 11 13 12 19 21 16 16 16 14 13 12 12 13 13 12 12 13 13 12 11 13 12 11 10 10 11 nan
nan nan nan nan nan nan nan nan nan nan nan nan nan nan nan nan nan nan nan nan nan nan nan nan nan nan nan nan nan nan nan nan nan nan nan nan nan nan nan nan nan nan nan nan nan nan nan nan nan nan nan nan nan nan
CAPE
0 0 2 4 8 9 8 8 5 7 11 25 52 49 77 63 52 69 54 64 12 53 27 4 3 16 19 12 20 10 22 16 23 24 24 18 21 15 7 0 0 4 60 69 56 63 49 47 10 22 32 30 18 6
0 0 0 3 4 5 8 20 23 42 26 27 63 84 74 42 21 59 74 51 54 13 21 14 4 11 14 21 43 61 13 7 25 38 37 31 30 25 10 12 0 21 44 39 41 109 113 51 7 3 10 28 27 22
8 14 12 4 0 7 8 11 16 27 36 22 16 24 24 39 33 43 62 61 10 6 12 15 12 3 3 1 14 36 21 17 18 22 43 31 22 16 24 12 11 11 7 23 36 22 35 18 3 20 24 22 19 24
0 0 2 13 14 8 8 8 10 20 17 24 22 23 42 39 50 37 65 16 47 40 30 7 0 0 0 0 1 6 7 19 26 38 28 35 30 8 11 10 14 5 6 0 12 6 11 21 25 23 20 17 6 14
0 0 0 0 0 4 17 14 18 11 13 19 20 20 28 31 20 33 82 52 67 37 28 17 2 0 1 1 1 23 32 32 26 29 42 28 19 15 11 17 6 0 0 8 66 21 19 22 18 23 11 4 13 7
0 0 0 0 0 0 0 0 7 22 21 21 20 19 21 34 32 53 29 30 54 51 56 23 0 0 0 0 5 12 22 36 30 30 26 18 16 19 30 13 0 0 0 0 2 3 5 7 24 10 9 4 2 3
17 1 0 0 0 0 0 0 0 0 0 9 27 26 26 42 69 59 28 4 15 18 61 25 2 0 1 4 12 4 13 30 20 22 32 20 22 36 37 11 0 0 0 0 5 7 7 16 18 14 3 2 3 2
0 0 9 3 0 0 0 0 0 0 0 0 1 20 29 38 31 60 29 9 18 50 56 23 2 0 0 13 6 11 9 29 39 30 31 19 24 45 22 0 0 0 0 0 0 23 14 5 5 8 2 1 1 2
0 0 0 0 17 3 0 0 0 1 13 3 1 23 26 53 82 43 1 14 39 61 56 14 3 0 0 33 36 13 18 23 17 27 16 20 31 40 0 0 0 0 0 7 13 12 6 3 2 3 3 5 5 3
0 0 0 6 2 16 0 0 0 1 16 8 31 50 34 26 3 28 62 6 11 32 71 23 0 2 0 37 66 76 60 60 60 24 19 51 12 0 0 0 0 0 1 11 14 14 8 2 3 3 3 2 4 6
0 0 0 1 18 8 13 0 0 6 16 42 42 38 25 5 63 50 18 37 48 47 36 6 4 4 1 9 24 31 41 34 41 28 28 23 2 6 0 0 0 0 2 10 0 0 0 1 3 3 3 3 0 1
0 0 1 1 14 23 16 2 0 25 34 35 20 13 33 40 69 15 27 35 30 13 10 7 9 4 12 15 26 39 29 20 11 33 35 11 16 15 0 1 3 3 2 1 0 0 1 1 1 3 2 4 6 5
0 1 4 3 10 9 26 18 4 23 17 49 35 23 84 30 29 49 32 37 32 9 19 13 11 17 24 19 32 37 24 33 30 30 38 0 8 0 0 2 4 2 0 0 0 0 1 3 5 5 6 7 5 5
0 0 7 9 16 5 25 12 26 49 96 47 30 25 38 36 40 13 13 16 23 41 68 54 53 14 17 28 18 49 21 37 54 44 6 68 1 0 2 1 1 1 1 1 1 0 0 6 4 2 3 7 13 19
0 2 2 1 0 1 0 15 12 53 40 47 35 26 34 13 1 3 11 25 24 67 64 78 81 67 63 63 35 25 48 46 40 38 54 80 2 3 0 1 0 3 0 0 0 29 2 1 5 6 9 8 17 1
8 3 5 0 2 1 4 20 83 71 109 48 44 33 39 51 42 58 54 48 32 33 50 63 29 45 40 41 41 24 14 28 36 72 58 24 8 2 0 0 0 1 0 1 0 1 4 1 3 19 9 7 6 2
8 26 6 12 14 8 14 53 129 38 18 42 56 64 59 51 58 67 36 40 11 19 43 19 68 20 69 32 10 42 48 67 32 47 35 33 30 19 0 0 0 0 0 0 0 0 2 11 2 2 3 5 8 17
18 17 23 9 28 20 41 38 47 57 30 24 40 46 63 63 68 53 32 34 26 30 30 39 26 6 20 31 44 65 62 1 0 19 52 41 22 1 0 0 0 0 0 0 0 1 3 9 6 7 3 4 5 16
27 23 4 8 31 33 35 43 46 44 33 25 18 25 35 28 10 3 11 20 39 30 41 41 48 36 24 70 36 40 17 0 0 21 28 16 1 2 0 0 0 0 0 1 2 3 5 5 8 9 11 10 14 12
26 17 10 6 21 68 45 42 32 35 18 29 27 13 13 23 19 71 27 19 26 29 31 29 20 63 82 51 56 11 8 21 54 23 18 70 48 1 0 0 1 2 2 1 2 0 3 4 7 4 6 7 12 13
26 26 9 45 45 83 30 35 47 30 31 27 25 31 34 32 28 46 54 17 37 14 43 55 79 65 56 32 43 37 10 0 7 34 48 43 76 0 0 1 0 2 2 3 5 3 0 7 6 6 10 14 16 14
30 9 26 31 53 29 40 26 26 26 34 30 32 34 33 39 16 10 1 9 7 12 70 85 73 96 78 49 49 28 14 7 8 0 0 0 0 5 6 5 6 6 4 5 2 5 7 4 3 3 8 12 5 7
21 36 39 36 38 40 5 13 25 23 31 19 26 31 32 35 11 5 10 2 10 56 20 8 8 3 18 7 0 0 0 0 0 1 1 3 5 4 8 10 4 4 4 2 0 1 3 0 0 1 2 4 3 4
20 45 29 49 41 25 24 46 31 23 24 26 30 22 20 31 22 16 12 28 39 0 0 3 5 22 11 1 0 0 0 2 3 4 5 7 8 7 5 5 1 0 0 0 0 0 0 1 0 0 1 2 1 1
20 8 31 25 28 29 34 24 29 26 41 23 31 27 32 40 14 9 19 0 8 30 17 10 12 8 2 0 0 4 0 5 6 9 12 8 4 4 4 3 2 1 0 0 0 0 0 0 1 1 0 0 0 0
18 7 31 25 33 40 28 19 12 18 29 26 27 30 21 28 5 2 3 23 26 22 20 15 9 9 6 5 8 8 10 7 7 11 7 5 4 7 10 6 3 2 0 0 0 0 0 0 0 0 0 0 0 1
11 12 25 23 21 35 30 11 15 21 4 2 18 24 33 18 7 4 19 6 0 7 0 2 5 8 8 9 2 3 6 4 4 4 2 1 0 0 0 1 0 1 0 0 0 0 0 0 0 0 0 1 2 3
12 10 12 23 32 36 14 19 15 15 23 24 22 18 24 22 9 40 43 8 0 0 0 0 0 1 3 1 1 1 2 1 0 0 0 0 0 0 0 0 0 0 0 0 0 0 1 1 0 0 2 2 1 1
20 20 24 0 6 26 27 20 30 32 29 43 87 63 39 42 76 48 42 20 0 0 0 2 1 2 1 1 3 3 5 4 2 0 0 2 2 3 1 0 0 0 0 0 0 0 0 1 1 2 0 2 2 3
5 17 39 28 0 2 49 45 53 89 37 29 34 41 30 35 47 33 0 0 0 0 2 7 5 5 5 7 4 2 2 3 2 3 6 3 3 1 2 1 0 0 0 0 0 0 0 0 0 1 0 1 3 2
0 15 14 31 17 21 70 123 11 0 0 6 38 26 25 14 1 0 0 0 1 5 4 3 3 2 4 4 7 5 3 1 0 0 0 1 1 1 0 0 0 0 0 0 0 0 0 0 1 0 0 0 0 0
0 1 4 0 17 8 0 0 4 15 23 14 35 5 0 0 0 0 0 1 3 3 3 4 5 3 2 3 0 0 0 0 0 0 0 0 0 0 0 0 0 0 0 0 0 0 0 0 0 0 1 0 0 0
0 0 0 12 5 4 2 4 11 20 44 15 35 39 39 5 0 0 0 1 4 5 6 6 3 2 0 0 0 0 0 0 0 0 0 0 0 0 0 0 0 0 0 0 0 0 0 0 0 0 0 0 0 0